Tomahawk, WI

3:22 PM CDT on August 29, 2016 (GMT -0500)
Tomahawk

Weather History for KTKV - April, 2014

Change the Weather History Date:

Monday, April 14, 2014

  Actual Average (KRHI) Record (KRHI)
Temperature  
Mean Temperature 20 °F 41 °F  
Max Temperature 30 °F 53 °F 83 °F (2003)
Min Temperature 8 °F 29 °F 2 °F (2014)
Degree Days  
Heating Degree Days 46 24  
Month to date heating degree days 378  
Since 1 July heating degree days 8173  
Cooling Degree Days 0 0  
Month to date cooling degree days 0  
Year to date cooling degree days 0  
Moisture  
Dew Point 17 °F    
Average Humidity 75    
Maximum Humidity 94    
Minimum Humidity 46    
Precipitation  
Precipitation 0.02 in 0.09 in 1.20 in (1938)
Month to date precipitation 1.11  
Year to date precipitation 4.72  
Snow  
Snow 0.00 in - 4.50 in (2014)
Month to date snowfall  
Since 1 July snowfall  
Snow Depth -    
Sea Level Pressure  
Sea Level Pressure 29.86 in    
Wind  
Wind Speed 10 mph (NNW)    
Max Wind Speed 17 mph    
Max Gust Speed 24 mph    
Visibility 8 miles    
Events Snow    
T = Trace of Precipitation, MM = Missing Value Source: NWS Daily Summary

Daily Weather History Graph

Daily Weather History Graph

Search for Another Location

Airport or City:

Trip Planner

Search our weather history database for the weather conditions in past years. The results will help you decide how hot, cold, wet, or windy it might be!

Date:

Astronomy

Apr. 14, 2014 Rise Set
Actual Time 6:15 AM CDT 7:44 PM CDT
Civil Twilight 5:44 AM CDT 8:15 PM CDT
Nautical Twilight 5:07 AM CDT 8:52 PM CDT
Astronomical Twilight 4:27 AM CDT 9:32 PM CDT
Moon 7:22 PM CDT (4/14) 5:49 AM CDT (4/14)
Length of Visible Light 14h 30m
Length of Day
13h 28m
Full, 100% of the Moon is Illuminated
Apr 14
Full
Apr 15
Full
Apr 22
Last Quarter
Apr 29
New
May 6
First Quarter

Hourly Weather History & Observations

Time (CDT) Temp. Windchill Dew Point Humidity Pressure Visibility Wind Dir Wind Speed Gust Speed Precip Events Conditions
12:15 AM 30.9 °F 22.2 °F 29.3 °F 94% 29.74 in 1.5 mi North 10.4 mph - 0.01 in Snow Light Snow
12:35 AM 30.7 °F 23.3 °F 29.1 °F 94% 29.74 in 1.2 mi North 8.1 mph 17.3 mph 0.01 in Snow Light Snow
12:55 AM 30.6 °F 21.8 °F 28.8 °F 93% 29.73 in 1.0 mi NNW 10.4 mph - 0.02 in Snow Snow
1:15 AM 30.2 °F 20.8 °F 28.4 °F 93% 29.72 in 1.2 mi North 11.5 mph 19.6 mph N/A Snow Light Snow
1:35 AM 30.2 °F 20.8 °F 28.4 °F 93% 29.71 in 1.8 mi NNW 11.5 mph 18.4 mph N/A Snow Light Snow
1:55 AM 30.2 °F 19.8 °F 28.2 °F 92% 29.70 in 1.8 mi NNW 13.8 mph 18.4 mph N/A Snow Light Snow
2:15 AM 30.0 °F 19.1 °F 27.9 °F 92% 29.68 in 1.8 mi NNW 15.0 mph 21.9 mph N/A Snow Light Snow
2:35 AM 29.7 °F 19.6 °F 27.5 °F 92% 29.68 in 1.8 mi North 12.7 mph 17.3 mph N/A Snow Light Snow
3:15 AM 29.3 °F 19.6 °F 26.2 °F 88% 29.68 in 3.0 mi NNW 11.5 mph 23.0 mph N/A Snow Light Snow
3:35 AM 29.1 °F 19.4 °F 25.9 °F 88% 29.70 in 4.0 mi NNW 11.5 mph 21.9 mph N/A Snow Light Snow
3:55 AM 28.2 °F 17.2 °F 25.2 °F 88% 29.71 in 3.0 mi North 13.8 mph 20.7 mph N/A Snow Light Snow
4:15 AM 27.5 °F 16.8 °F 24.8 °F 90% 29.73 in 1.5 mi NNW 12.7 mph 20.7 mph N/A Snow Light Snow
4:35 AM 27.1 °F 18.2 °F 24.8 °F 91% 29.74 in 1.2 mi NNW 9.2 mph 17.3 mph N/A Snow Light Snow
4:55 AM 26.6 °F 16.2 °F 24.6 °F 92% 29.74 in 1.2 mi NNW 11.5 mph 17.3 mph N/A Snow Light Snow
5:15 AM 26.4 °F 17.3 °F 24.3 °F 92% 29.74 in 1.2 mi NNW 9.2 mph 18.4 mph N/A Snow Snow
5:35 AM 25.7 °F 13.5 °F 23.4 °F 91% 29.74 in 1.2 mi North 15.0 mph 20.7 mph N/A Snow Light Snow
5:55 AM 24.8 °F 14.6 °F 22.1 °F 89% 29.74 in 1.8 mi North 10.4 mph 24.2 mph N/A Snow Light Snow
6:15 AM 24.8 °F 19.1 °F 22.3 °F 90% 29.74 in 2.0 mi NNW 4.6 mph - N/A Snow Light Snow
6:35 AM 24.8 °F 11.5 °F 21.9 °F 89% 29.76 in 2.5 mi NNW 17.3 mph 24.2 mph N/A Snow Light Snow
6:55 AM 24.4 °F 11.9 °F 20.1 °F 84% 29.77 in 5.0 mi NNW 15.0 mph 24.2 mph N/A Snow Light Snow
7:15 AM 23.9 °F 12.9 °F 19.4 °F 83% 29.78 in 10.0 mi NNW 11.5 mph 19.6 mph N/A   Overcast
7:35 AM 23.9 °F 11.7 °F 19.8 °F 84% 29.79 in 10.0 mi North 13.8 mph 24.2 mph N/A   Overcast
7:55 AM 24.1 °F 11.5 °F 19.9 °F 84% 29.81 in 10.0 mi NNW 15.0 mph 23.0 mph N/A   Overcast
8:15 AM 24.3 °F 12.7 °F 20.1 °F 84% 29.82 in 10.0 mi NW 12.7 mph 18.4 mph N/A   Overcast
8:35 AM 23.7 °F 11.0 °F 19.4 °F 84% 29.84 in 10.0 mi NW 15.0 mph 23.0 mph N/A   Overcast
8:55 AM 23.7 °F 11.0 °F 18.7 °F 81% 29.86 in 10.0 mi NNW 15.0 mph 23.0 mph N/A   Overcast
9:15 AM 23.9 °F 13.5 °F 18.5 °F 80% 29.85 in 10.0 mi NNW 10.4 mph - N/A   Overcast
9:35 AM 24.3 °F 15.4 °F 18.7 °F 79% 29.85 in 10.0 mi North 8.1 mph - N/A   Overcast
9:55 AM 24.3 °F 12.2 °F 18.5 °F 79% 29.87 in 10.0 mi NNW 13.8 mph 20.7 mph N/A   Overcast
10:15 AM 24.4 °F 12.4 °F 18.1 °F 77% 29.86 in 10.0 mi NNW 13.8 mph 20.7 mph N/A   Overcast
10:35 AM 24.8 °F 12.9 °F 18.1 °F 76% 29.86 in 10.0 mi NNW 13.8 mph 20.7 mph N/A   Overcast
10:55 AM 25.3 °F 13.6 °F 17.4 °F 72% 29.86 in 10.0 mi North 13.8 mph 23.0 mph N/A   Overcast
11:15 AM 25.5 °F 14.3 °F 17.4 °F 71% 29.86 in 10.0 mi NNW 12.7 mph 21.9 mph N/A   Overcast
11:35 AM 25.7 °F 14.0 °F 17.4 °F 71% 29.86 in 10.0 mi NW 13.8 mph 24.2 mph N/A   Overcast
11:55 AM 26.2 °F 15.8 °F 17.6 °F 70% 29.88 in 10.0 mi NNW 11.5 mph 19.6 mph N/A   Overcast
12:15 PM 26.6 °F 16.8 °F 18.1 °F 70% 29.90 in 10.0 mi NW 10.4 mph 16.1 mph N/A   Overcast
12:35 PM 25.7 °F 14.6 °F 18.0 °F 73% 29.91 in 7.0 mi NW 12.7 mph 21.9 mph N/A Snow Light Snow
12:55 PM 25.2 °F 14.4 °F 18.0 °F 74% 29.92 in 5.0 mi NW 11.5 mph - N/A Snow Light Snow
1:15 PM 25.7 °F 16.4 °F 18.0 °F 73% 29.92 in 7.0 mi NNW 9.2 mph 16.1 mph N/A Snow Light Snow
1:35 PM 25.3 °F 14.7 °F 17.6 °F 72% 29.93 in 7.0 mi NW 11.5 mph 19.6 mph N/A Snow Light Snow
1:55 PM 25.3 °F 14.1 °F 15.6 °F 67% 29.93 in 10.0 mi NNW 12.7 mph 18.4 mph N/A   Overcast
2:15 PM 25.7 °F 15.1 °F 15.4 °F 65% 29.94 in 10.0 mi NNW 11.5 mph 19.6 mph N/A   Overcast
2:35 PM 26.2 °F 17.1 °F 15.4 °F 64% 29.94 in 10.0 mi NNW 9.2 mph 17.3 mph N/A   Overcast
3:15 PM 26.1 °F 16.2 °F 14.7 °F 62% 29.93 in 10.0 mi NNW 10.4 mph 17.3 mph N/A   Overcast
3:35 PM 26.2 °F 16.4 °F 14.5 °F 61% 29.94 in 10.0 mi North 10.4 mph 16.1 mph N/A   Mostly Cloudy
3:55 PM 25.7 °F 16.4 °F 13.5 °F 60% 29.94 in 10.0 mi NNW 9.2 mph 17.3 mph N/A   Mostly Cloudy
4:15 PM 25.7 °F 15.7 °F 14.0 °F 61% 29.93 in 10.0 mi NNW 10.4 mph - N/A   Scattered Clouds
4:35 PM 25.9 °F 18.2 °F 13.1 °F 58% 29.93 in 10.0 mi North 6.9 mph - N/A   Mostly Cloudy
4:55 PM 25.7 °F 18.0 °F 13.1 °F 59% 29.93 in 10.0 mi North 6.9 mph 17.3 mph N/A   Scattered Clouds
5:15 PM 27.0 °F 16.7 °F 13.6 °F 57% 29.94 in 10.0 mi North 11.5 mph 16.1 mph N/A   Mostly Cloudy
5:35 PM 26.4 °F 18.0 °F 10.9 °F 52% 29.94 in 10.0 mi NNW 8.1 mph 18.4 mph N/A   Scattered Clouds
5:55 PM 25.3 °F 13.6 °F 10.8 °F 54% 29.94 in 10.0 mi NNW 13.8 mph 18.4 mph N/A   Scattered Clouds
6:15 PM 25.2 °F 14.4 °F 8.1 °F 48% 29.94 in 10.0 mi North 11.5 mph 16.1 mph N/A   Clear
6:35 PM 24.8 °F 16.9 °F 7.3 °F 48% 29.95 in 10.0 mi NNW 6.9 mph 16.1 mph N/A   Clear
6:55 PM 25.0 °F 17.1 °F 7.0 °F 46% 29.95 in 10.0 mi North 6.9 mph - N/A   Clear
7:15 PM 24.1 °F 18.2 °F 6.8 °F 48% 29.96 in 10.0 mi NNW 4.6 mph - N/A   Clear
7:35 PM 23.2 °F 15.0 °F 7.2 °F 50% 29.97 in 10.0 mi NNW 6.9 mph - N/A   Clear
7:55 PM 22.5 °F - 8.1 °F 54% 29.97 in 10.0 mi Calm Calm - N/A   Clear
8:15 PM 21.9 °F - 7.9 °F 55% 29.98 in 10.0 mi Calm Calm - N/A   Clear
8:35 PM 21.4 °F - 7.5 °F 55% 29.99 in 10.0 mi Calm Calm - N/A   Clear
8:55 PM 20.7 °F - 6.6 °F 55% 30.00 in 10.0 mi Calm Calm - N/A   Clear
9:15 PM 19.6 °F - 6.8 °F 58% 30.00 in 10.0 mi Calm Calm - N/A   Clear
9:35 PM 17.4 °F - 6.6 °F 63% 30.00 in 10.0 mi Calm Calm - N/A   Clear
9:55 PM 16.3 °F - 6.8 °F 66% 30.00 in 10.0 mi Calm Calm - N/A   Clear
10:15 PM 12.4 °F - 6.8 °F 78% 30.00 in 10.0 mi Calm Calm - N/A   Clear
10:35 PM 11.3 °F - 7.0 °F 83% 30.00 in 10.0 mi Calm Calm - N/A   Clear
10:55 PM 9.5 °F - 6.8 °F 89% 30.00 in 10.0 mi Calm Calm - N/A   Clear
11:15 PM 9.5 °F - 6.4 °F 87% 30.00 in 10.0 mi Calm Calm - N/A   Clear
11:35 PM 8.6 °F - 5.7 °F 88% 30.00 in 10.0 mi Calm Calm - N/A   Clear